Regional Weather Roundup
Issued by NWS

Current Version | Previous Version | Text Only | Print | Product List | Glossary On
Versions: 1 2 3 4 5 6 7 8 9 10 11 12 13 14 15 16 17 18 19 20 21 22 23 24 25 26 27 28 29 30 31 32 33 34 35 36 37 38 39 40 41 42 43 44 45 46 47 48 49 50
000
ASUS43 KDTX 242010
RWRMI
MICHIGAN HOURLY REGIONAL WEATHER ROUNDUP
NATIONAL WEATHER SERVICE DETROIT/PONTIAC MI
400 PM EDT FRI MAR 24 2017

NOTE: "FAIR" INDICATES FEW OR NO CLOUDS BELOW 12,000 FEET WITH NO
SIGNIFICANT WEATHER AND/OR OBSTRUCTION TO VISIBILITY.

MIZ047>049-052>055-059>063-066>070-074>076-081>083-242100-
SOUTHEAST LOWER MICHIGAN

CITY           SKY/WX    TMP DP  RH WIND       PRES   REMARKS
ADRIAN         SUNNY     74  53  48 W20G29    29.95F
ALMA           SUNNY     67  49  52 SW16G22   29.91F
ANN ARBOR      MOSUNNY   74  54  49 S13G22    29.93F
BAD AXE        CLOUDY    59  44  59 N9        29.92R
CARO           CLOUDY    69  49  49 SW15G30   29.90S
DETROIT CITY   SUNNY     72  54  53 W16       29.93F
DETROIT        CLOUDY    75  54  47 SW22G28   29.94F
FLINT          MOSUNNY   72  50  45 W17G24    29.90F
GROSSE ILE     SUNNY     72  54  52 SW13G23   29.93F
HILLSDALE      SUNNY     73  50  43 W18G29    29.94F
HOWELL         MOSUNNY   73  48  42 SW14G22   29.92S

CITY           SKY/WX    TMP DP  RH WIND       PRES   REMARKS
JACKSON        MOSUNNY   74  50  42 SW24      29.92F
LAMBERTVILLE   SUNNY     75  53  45 SW18G26   29.95F
LANSING        CLOUDY    67  49  52 W8        29.93R
LAPEER         PTSUNNY   71  49  45 W16       29.90F
MASON          CLOUDY    72  53  50 SW6       29.91F
MONROE         SUNNY     73  57  57 MISG      29.93F
MT. CLEMENS    CLOUDY    71  54  53 W17       29.90F
PONTIAC        CLOUDY    72  50  45 SW17G26   29.91F
PORT HOPE        N/A     42  36  79 NW6       29.93R
PORT HURON     MOSUNNY   70  48  46 SW9G16    29.91F
TRI CITIES     SUNNY     66  50  56 W22G28    29.90S
MIDLAND        FAIR      69  47  46 W14G20    29.88S
TROY           SUNNY     73  50  44 SW14G20   29.93F
SAGINAW HB     CLOUDY    66  45  45 W22G31    29.90S
$$
MIZ043>046-050>051-056>058-064>065-071>073-077>080-242100-
SOUTHWEST LOWER MICHIGAN

CITY           SKY/WX    TMP DP  RH WIND       PRES   REMARKS
BATTLE CREEK   SUNNY     77  47  34 SW23G33   29.92S
BENTON HARBOR  SUNNY     78  48  34 SW23G31   29.91F
BIG RAPIDS     PTSUNNY   62  45  53 NW13      29.91R
COLDWATER      SUNNY     76  47  35 SW23G31   29.94F
FREMONT        FAIR      63  45  51 W12       29.92R
HOLLAND        MOSUNNY   67  50  54 W14G22    29.91F
GRAND RAPIDS   MOSUNNY   69  50  50 W15       29.91S
IONIA          FAIR      69  49  48 W15G24    29.90F
KALAMAZOO      SUNNY     78  43  28 SW25G31   29.91F
LUDINGTON      CLOUDY    50  38  64 N9        29.95R
MARSHALL       MOSUNNY   77  45  31 W17G32    29.92S
MOUNT PLEASANT MOSUNNY   67  48  49 W12       29.89S
MUSKEGON       PTSUNNY   63  46  54 NW10      29.93S
SOUTH HAVEN    SUNNY     75  48  37 SW16G29   29.90F
$$
MIZ016>042-242100-
NORTHERN LOWER MICHIGAN

CITY           SKY/WX    TMP DP  RH WIND       PRES   REMARKS
ALPENA         LGT RAIN  38  37  97 N12       30.01R FOG     WCI  30
BEAVER ISLAND  MIX PCPN  34  34 100 N6        30.03S WCI  29
BELLAIRE       LGT SNOW  36  34  93 N5        30.01S WCI  32
CADILLAC       CLOUDY    42  37  79 N6        29.95R
CHARLEVOIX     DRIZZLE   34  34 100 N8        30.05R WCI  27
FRANKFORT      CLOUDY    37  34  90 N7        29.98S WCI  31
GAYLORD        LGT RAIN  38  34  85 VRB3      29.98S FOG
GRAYLING       LGT RAIN  39  37  93 NW5       29.99R
HARBOR SPRINGS RAIN      36  35  97 CALM      30.01S
HOUGHTON LAKE  CLOUDY    45  36  70 N12       29.96R
MANISTEE       CLOUDY    43  37  79 NW6       29.97S
OSCODA         CLOUDY    42  36  78 E8        29.96R
PELLSTON       RAIN      35  32  88 N6        30.02S WCI  30
ROGERS CITY    MIX PCPN  34  33  94 NW7         N/A  WCI  28
TRAVERSE CITY  LGT RAIN  37  35  92 N8        29.99F FOG     WCI  31
$$
MIZ007>008-015-242100-
EASTERN UPPER MICHIGAN

CITY           SKY/WX    TMP DP  RH WIND       PRES   REMARKS
KINROSS        CLOUDY    35  33  92 N8        30.02R WCI  29
MACKINAC ISLAN LGT SNOW  32  32 100 N6        30.02S WCI  27
NEWBERRY       CLOUDY    34  33  96 N6        30.02S FOG     WCI  29
S. S. MARIE    CLOUDY    38  33  82 N6        30.01F WCI  33
MUNISING         N/A     35  34  96 N9        30.05R WCI  28
$$
MIZ004>006-011>014-085-242100-
CENTRAL UPPER MICHIGAN

CITY           SKY/WX    TMP DP  RH WIND       PRES   REMARKS
MANISTIQUE     CLOUDY    36  36 100 N9        30.02S FOG     WCI  29
ESCANABA       LGT RAIN  37  35  92 N8        30.02F WCI  31
MENOMINEE        N/A    N/A N/A N/A MISG        N/A
SAWYER-GWINN   CLOUDY    34  32  93 N12       30.03S FOG     WCI  25
$$
MIZ001>003-009>011-084-242100-
WESTERN UPPER MICHIGAN

CITY           SKY/WX    TMP DP  RH WIND       PRES   REMARKS
IRON MOUNTAIN  CLOUDY    37  32  82 N12       30.03R WCI  29
HOUGHTON       CLOUDY    37  31  78 N9        30.08R WCI  30
COPPER HARBOR    N/A     35  33  92 NE6       30.09R WCI  30
IRONWOOD       CLOUDY    36  34  93 N9        30.09R FOG     WCI  29
$$

ABBREVIATIONS USED IN REMARKS
   TC - TEMPERATURE IN CELSIUS
  WCI - WIND CHILL INDEX
   HX - HEAT INDEX
  VSB - VISIBILITY





USA.gov is the U.S. government's official web portal to all federal, state and local government web resources and services.